Time,TemperatureF,DewpointF,PressureIn,WindDirection,WindDirectionDegrees,WindSpeedMPH,WindSpeedGustMPH,Humidity,HourlyPrecipIn,Conditions,Clouds,dailyrainin,SoftwareType,DateUTC
2013-08-30 00:12:00,72.0,70.0,29.96,NE,37,0.0,0.0,95,0.00,,,0.00,,2013-08-30 05:12:00,
2013-08-30 00:23:00,72.0,70.0,29.96,NE,37,0.0,0.0,95,0.00,,,0.00,,2013-08-30 05:23:00,
2013-08-30 00:42:00,72.0,70.0,29.96,NE,37,0.0,0.0,95,0.00,,,0.00,,2013-08-30 05:42:00,
2013-08-30 00:52:00,72.0,70.0,29.96,NE,37,0.0,0.0,95,0.00,,,0.00,,2013-08-30 05:52:00,
2013-08-30 01:12:00,71.0,69.0,29.96,NE,37,0.0,0.0,95,0.00,,,0.00,,2013-08-30 06:12:00,
2013-08-30 01:22:00,71.0,70.0,29.96,NE,37,0.0,0.0,96,0.00,,,0.00,,2013-08-30 06:22:00,
2013-08-30 01:42:00,71.0,70.0,29.96,NE,37,0.0,0.0,96,0.00,,,0.00,,2013-08-30 06:42:00,
2013-08-30 01:53:00,71.0,70.0,29.96,NE,37,0.0,0.0,96,0.00,,,0.00,,2013-08-30 06:53:00,
2013-08-30 02:12:00,71.0,70.0,29.96,NE,37,0.0,0.0,96,0.00,,,0.00,,2013-08-30 07:12:00,
2013-08-30 02:21:00,71.0,70.0,29.96,NE,37,0.0,0.0,96,0.00,,,0.00,,2013-08-30 07:21:00,
2013-08-30 02:43:00,70.0,69.0,29.96,NE,37,0.0,0.0,96,0.00,,,0.00,,2013-08-30 07:43:00,
2013-08-30 02:53:00,70.0,69.0,29.96,NE,37,0.0,0.0,96,0.00,,,0.00,,2013-08-30 07:53:00,
2013-08-30 03:11:00,70.0,69.0,29.95,NE,37,0.0,0.0,96,0.00,,,0.00,,2013-08-30 08:11:00,
2013-08-30 03:22:00,69.0,68.0,29.95,NE,37,0.0,0.0,96,0.00,,,0.00,,2013-08-30 08:22:00,
2013-08-30 03:42:00,69.0,68.0,29.95,NE,37,0.0,0.0,96,0.00,,,0.00,,2013-08-30 08:42:00,
2013-08-30 03:52:00,69.0,68.0,29.96,NE,37,0.0,0.0,96,0.00,,,0.00,,2013-08-30 08:52:00,
2013-08-30 04:12:00,69.0,68.0,29.95,NE,37,0.0,0.0,96,0.00,,,0.00,,2013-08-30 09:12:00,
2013-08-30 04:22:00,69.0,68.0,29.95,NE,37,0.0,0.0,96,0.00,,,0.00,,2013-08-30 09:22:00,
2013-08-30 04:44:00,69.0,68.0,29.95,NE,37,0.0,0.0,97,0.00,,,0.00,,2013-08-30 09:44:00,
2013-08-30 04:53:00,69.0,68.0,29.95,NE,37,0.0,0.0,97,0.00,,,0.00,,2013-08-30 09:53:00,
2013-08-30 05:12:00,69.0,68.0,29.95,NE,37,0.0,0.0,97,0.00,,,0.00,,2013-08-30 10:12:00,
2013-08-30 05:23:00,69.0,68.0,29.95,NE,37,0.0,0.0,97,0.00,,,0.00,,2013-08-30 10:23:00,
2013-08-30 05:43:00,69.0,68.0,29.95,NE,37,0.0,0.0,97,0.00,,,0.00,,2013-08-30 10:43:00,
2013-08-30 05:53:00,69.0,68.0,29.95,NE,37,0.0,0.0,97,0.00,,,0.00,,2013-08-30 10:53:00,
2013-08-30 06:12:00,69.0,68.0,29.95,NE,37,0.0,0.0,97,0.00,,,0.00,,2013-08-30 11:12:00,
2013-08-30 06:22:00,69.0,68.0,29.95,NE,37,0.0,0.0,97,0.00,,,0.00,,2013-08-30 11:22:00,
2013-08-30 06:42:00,68.0,67.0,29.95,NE,37,0.0,0.0,97,0.00,,,0.00,,2013-08-30 11:42:00,
2013-08-30 06:52:00,68.0,67.0,29.96,NE,37,0.0,0.0,97,0.00,,,0.00,,2013-08-30 11:52:00,
2013-08-30 07:12:00,68.0,67.0,29.96,NE,37,0.0,0.0,97,0.00,,,0.00,,2013-08-30 12:12:00,
2013-08-30 07:21:00,68.0,67.0,29.96,NE,37,0.0,0.0,97,0.00,,,0.00,,2013-08-30 12:21:00,
2013-08-30 07:42:00,70.0,69.0,29.96,NE,37,0.0,0.0,98,0.00,,,0.00,,2013-08-30 12:42:00,
2013-08-30 07:52:00,71.0,70.0,29.96,NE,37,0.0,0.0,98,0.00,,,0.00,,2013-08-30 12:52:00,
2013-08-30 08:11:00,72.0,71.0,29.96,NE,37,0.0,0.0,98,0.00,,,0.00,,2013-08-30 13:11:00,
2013-08-30 08:21:00,73.0,72.0,29.96,NE,37,0.0,0.0,97,0.00,,,0.00,,2013-08-30 13:21:00,
2013-08-30 08:52:00,76.0,74.0,29.96,WSW,238,0.0,2.0,92,0.00,,,0.00,,2013-08-30 13:52:00,
2013-08-30 09:11:00,77.0,74.0,29.96,SSW,209,1.0,5.0,89,0.00,,,0.00,,2013-08-30 14:11:00,
2013-08-30 09:21:00,79.0,74.0,29.96,SSW,207,2.0,5.0,84,0.00,,,0.00,,2013-08-30 14:21:00,
2013-08-30 09:42:00,81.0,75.0,29.96,SSW,199,1.0,5.0,83,0.00,,,0.00,,2013-08-30 14:42:00,
2013-08-30 09:52:00,82.0,75.0,29.96,SW,217,1.0,5.0,79,0.00,,,0.00,,2013-08-30 14:52:00,
2013-08-30 10:11:00,83.0,75.0,29.96,SSW,192,2.0,5.0,78,0.00,,,0.00,,2013-08-30 15:11:00,
2013-08-30 10:22:00,84.0,76.0,29.95,SW,219,1.0,5.0,78,0.00,,,0.00,,2013-08-30 15:22:00,
2013-08-30 10:43:00,85.0,77.0,29.95,SW,214,1.0,6.0,78,0.00,,,0.00,,2013-08-30 15:43:00,
2013-08-30 10:54:00,86.0,78.0,29.95,SW,223,3.0,7.0,76,0.00,,,0.00,,2013-08-30 15:54:00,
2013-08-30 11:13:00,86.0,77.0,29.95,SW,218,0.0,5.0,75,0.00,,,0.00,,2013-08-30 16:13:00,
2013-08-30 11:25:00,87.0,78.0,29.95,WNW,290,2.0,5.0,74,0.00,,,0.00,,2013-08-30 16:25:00,
2013-08-30 11:43:00,88.0,77.0,29.94,WSW,247,2.0,7.0,70,0.00,,,0.00,,2013-08-30 16:43:00,
2013-08-30 11:53:00,89.0,79.0,29.93,SW,231,0.0,4.0,72,0.00,,,0.00,,2013-08-30 16:53:00,
2013-08-30 12:13:00,90.0,78.0,29.93,West,280,2.0,7.0,68,0.00,,,0.00,,2013-08-30 17:13:00,
2013-08-30 12:23:00,91.0,78.0,29.92,West,271,2.0,6.0,67,0.00,,,0.00,,2013-08-30 17:23:00,
2013-08-30 12:42:00,91.0,78.0,29.92,WSW,237,4.0,8.0,66,0.00,,,0.00,,2013-08-30 17:42:00,
2013-08-30 12:53:00,91.0,78.0,29.92,WSW,237,4.0,8.0,66,0.00,,,0.00,,2013-08-30 17:53:00,
2013-08-30 13:12:00,92.0,79.0,29.91,WSW,240,2.0,7.0,65,0.00,,,0.00,,2013-08-30 18:12:00,
2013-08-30 13:22:00,93.0,79.0,29.91,WSW,242,2.0,10.0,63,0.00,,,0.00,,2013-08-30 18:22:00,
2013-08-30 13:42:00,94.0,77.0,29.91,WNW,302,1.0,8.0,58,0.00,,,0.00,,2013-08-30 18:42:00,
2013-08-30 13:52:00,94.0,76.0,29.91,WSW,252,0.0,7.0,56,0.00,,,0.00,,2013-08-30 18:52:00,
2013-08-30 14:12:00,93.0,78.0,29.90,SW,219,2.0,7.0,62,0.00,,,0.00,,2013-08-30 19:12:00,
2013-08-30 14:22:00,93.0,77.0,29.90,SW,234,3.0,7.0,59,0.00,,,0.00,,2013-08-30 19:22:00,
2013-08-30 14:53:00,94.0,79.0,29.88,WSW,254,2.0,6.0,63,0.00,,,0.00,,2013-08-30 19:53:00,
2013-08-30 15:11:00,95.0,78.0,29.88,WNW,290,0.0,5.0,59,0.00,,,0.00,,2013-08-30 20:11:00,
2013-08-30 15:22:00,95.0,77.0,29.88,WSW,238,1.0,6.0,57,0.00,,,0.00,,2013-08-30 20:22:00,
2013-08-30 15:52:00,95.0,75.0,29.86,West,260,3.0,8.0,53,0.00,,,0.00,,2013-08-30 20:52:00,
2013-08-30 16:11:00,96.0,75.0,29.86,SW,234,5.0,9.0,51,0.00,,,0.00,,2013-08-30 21:11:00,
2013-08-30 16:22:00,95.0,77.0,29.86,SW,229,3.0,8.0,57,0.00,,,0.00,,2013-08-30 21:22:00,
2013-08-30 16:54:00,95.0,76.0,29.85,WSW,248,4.0,8.0,54,0.00,,,0.00,,2013-08-30 21:54:00,
2013-08-30 17:13:00,94.0,78.0,29.85,WSW,244,1.0,7.0,60,0.00,,,0.00,,2013-08-30 22:13:00,
2013-08-30 17:24:00,94.0,76.0,29.85,WNW,290,0.0,6.0,56,0.00,,,0.00,,2013-08-30 22:24:00,
2013-08-30 17:54:00,94.0,76.0,29.84,WSW,246,2.0,5.0,57,0.00,,,0.00,,2013-08-30 22:54:00,
2013-08-30 18:12:00,93.0,78.0,29.84,SW,222,1.0,5.0,61,0.00,,,0.00,,2013-08-30 23:12:00,
2013-08-30 18:22:00,92.0,78.0,29.83,SW,222,1.0,6.0,63,0.00,,,0.00,,2013-08-30 23:22:00,
2013-08-30 18:53:00,90.0,78.0,29.83,SW,231,0.0,4.0,68,0.00,,,0.00,,2013-08-30 23:53:00,
2013-08-30 19:11:00,88.0,77.0,29.83,SW,228,0.0,4.0,69,0.00,,,0.00,,2013-08-31 00:11:00,
2013-08-30 19:22:00,87.0,77.0,29.83,SW,228,0.0,2.0,72,0.00,,,0.00,,2013-08-31 00:22:00,
2013-08-30 19:42:00,86.0,77.0,29.83,SW,228,0.0,1.0,75,0.00,,,0.00,,2013-08-31 00:42:00,
2013-08-30 19:52:00,84.0,75.0,29.83,SW,228,0.0,1.0,75,0.00,,,0.00,,2013-08-31 00:52:00,
2013-08-30 20:11:00,83.0,76.0,29.84,SW,221,0.0,1.0,79,0.00,,,0.00,,2013-08-31 01:11:00,
2013-08-30 20:22:00,82.0,76.0,29.84,SW,221,0.0,0.0,81,0.00,,,0.00,,2013-08-31 01:22:00,
2013-08-30 20:42:00,81.0,75.0,29.85,SW,221,0.0,0.0,83,0.00,,,0.00,,2013-08-31 01:42:00,
2013-08-30 20:52:00,81.0,76.0,29.85,SW,221,0.0,0.0,84,0.00,,,0.00,,2013-08-31 01:52:00,
2013-08-30 21:12:00,80.0,75.0,29.86,SW,221,0.0,0.0,85,0.00,,,0.00,,2013-08-31 02:12:00,
2013-08-30 21:22:00,80.0,75.0,29.85,SW,221,0.0,0.0,85,0.00,,,0.00,,2013-08-31 02:22:00,
2013-08-30 21:42:00,79.0,74.0,29.85,SW,221,0.0,0.0,86,0.00,,,0.00,,2013-08-31 02:42:00,
2013-08-30 21:52:00,79.0,75.0,29.85,SW,221,0.0,0.0,87,0.00,,,0.00,,2013-08-31 02:52:00,
2013-08-30 22:12:00,78.0,74.0,29.85,SW,221,0.0,0.0,88,0.00,,,0.00,,2013-08-31 03:12:00,
2013-08-30 22:22:00,78.0,74.0,29.85,SW,221,0.0,1.0,87,0.00,,,0.00,,2013-08-31 03:22:00,
2013-08-30 22:44:00,77.0,73.0,29.84,SW,221,0.0,1.0,87,0.00,,,0.00,,2013-08-31 03:44:00,
2013-08-30 22:54:00,77.0,73.0,29.84,SW,221,0.0,2.0,87,0.00,,,0.00,,2013-08-31 03:54:00,
2013-08-30 23:14:00,77.0,73.0,29.84,SW,221,0.0,1.0,87,0.00,,,0.00,,2013-08-31 04:14:00,
2013-08-30 23:24:00,77.0,73.0,29.84,SW,221,0.0,1.0,88,0.00,,,0.00,,2013-08-31 04:24:00,
2013-08-30 23:44:00,76.0,72.0,29.84,SW,221,0.0,1.0,88,0.00,,,0.00,,2013-08-31 04:44:00,
2013-08-30 23:54:00,76.0,72.0,29.84,SW,221,0.0,1.0,88,0.00,,,0.00,,2013-08-31 04:54:00,